Time,TemperatureF,DewpointF,PressureIn,WindDirection,WindDirectionDegrees,WindSpeedMPH,WindSpeedGustMPH,Humidity,HourlyPrecipIn,Conditions,Clouds,dailyrainin,SoftwareType,DateUTC
2013-02-21 00:00:00,19.0,14.1,30.37,ENE,59,0.0,11.0,81,0.00,,,0.00,Wunderground v.1.15,2013-02-21 05:00:00,
2013-02-21 00:05:00,18.9,14.3,30.37,ENE,59,0.0,11.0,82,0.00,,,0.00,Wunderground v.1.15,2013-02-21 05:05:00,
2013-02-21 00:10:00,18.7,14.1,30.36,ENE,59,0.0,11.0,82,0.00,,,0.00,Wunderground v.1.15,2013-02-21 05:10:00,
2013-02-21 00:20:00,18.3,14.0,30.36,ENE,59,0.0,11.0,83,0.00,,,0.00,Wunderground v.1.15,2013-02-21 05:20:00,
2013-02-21 00:25:00,18.2,14.2,30.36,ENE,59,0.0,11.0,84,0.00,,,0.00,Wunderground v.1.15,2013-02-21 05:25:00,
2013-02-21 00:30:00,18.0,14.0,30.37,ENE,59,0.0,11.0,84,0.00,,,0.00,Wunderground v.1.15,2013-02-21 05:30:00,
2013-02-21 00:35:00,17.9,13.9,30.37,ENE,59,0.0,11.0,84,0.00,,,0.00,Wunderground v.1.15,2013-02-21 05:35:00,
2013-02-21 00:40:00,17.7,14.0,30.37,ENE,59,0.0,11.0,85,0.00,,,0.00,Wunderground v.1.15,2013-02-21 05:40:00,
2013-02-21 00:50:00,17.3,13.8,30.37,ENE,59,0.0,11.0,86,0.00,,,0.00,Wunderground v.1.15,2013-02-21 05:50:00,
2013-02-21 00:55:00,17.2,14.0,30.37,ENE,59,0.0,11.0,87,0.00,,,0.00,Wunderground v.1.15,2013-02-21 05:55:00,
2013-02-21 01:00:00,17.1,14.2,30.37,ENE,59,0.0,11.0,88,0.00,,,0.00,Wunderground v.1.15,2013-02-21 06:00:00,
2013-02-21 01:05:00,16.9,14.0,30.36,ENE,59,0.0,11.0,88,0.00,,,0.00,Wunderground v.1.15,2013-02-21 06:05:00,
2013-02-21 01:10:00,16.7,13.8,30.37,ENE,59,0.0,11.0,88,0.00,,,0.00,Wunderground v.1.15,2013-02-21 06:10:00,
2013-02-21 01:15:00,16.5,13.8,30.37,ENE,59,0.0,11.0,89,0.00,,,0.00,Wunderground v.1.15,2013-02-21 06:15:00,
2013-02-21 01:25:00,16.1,13.4,30.37,ENE,59,0.0,11.0,89,0.00,,,0.00,Wunderground v.1.15,2013-02-21 06:25:00,
2013-02-21 01:30:00,15.8,13.1,30.37,ENE,59,0.0,11.0,89,0.00,,,0.00,Wunderground v.1.15,2013-02-21 06:30:00,
2013-02-21 01:35:00,15.6,12.9,30.37,ENE,59,0.0,11.0,89,0.00,,,0.00,Wunderground v.1.15,2013-02-21 06:35:00,
2013-02-21 01:40:00,15.4,13.0,30.37,ENE,59,0.0,11.0,90,0.00,,,0.00,Wunderground v.1.15,2013-02-21 06:40:00,
2013-02-21 01:45:00,15.2,12.8,30.37,ENE,59,0.0,11.0,90,0.00,,,0.00,Wunderground v.1.15,2013-02-21 06:45:00,
2013-02-21 01:55:00,15.0,12.8,30.37,ENE,59,0.0,11.0,91,0.00,,,0.00,Wunderground v.1.15,2013-02-21 06:55:00,
2013-02-21 02:00:00,14.8,12.6,30.37,ENE,59,0.0,11.0,91,0.00,,,0.00,Wunderground v.1.15,2013-02-21 07:00:00,
2013-02-21 02:05:00,14.6,12.5,30.37,ENE,59,0.0,11.0,91,0.00,,,0.00,Wunderground v.1.15,2013-02-21 07:05:00,
2013-02-21 02:10:00,14.5,12.4,30.37,ENE,59,0.0,11.0,91,0.00,,,0.00,Wunderground v.1.15,2013-02-21 07:10:00,
2013-02-21 02:15:00,14.4,12.3,30.37,ENE,59,0.0,11.0,91,0.00,,,0.00,Wunderground v.1.15,2013-02-21 07:15:00,
2013-02-21 02:20:00,14.4,12.5,30.37,ENE,59,0.0,11.0,92,0.00,,,0.00,Wunderground v.1.15,2013-02-21 07:20:00,
2013-02-21 02:30:00,14.5,12.6,30.37,ENE,59,0.0,11.0,92,0.00,,,0.00,Wunderground v.1.15,2013-02-21 07:30:00,
2013-02-21 02:35:00,14.5,12.6,30.36,ENE,59,0.0,11.0,92,0.00,,,0.00,Wunderground v.1.15,2013-02-21 07:35:00,
2013-02-21 02:40:00,14.6,12.7,30.36,ENE,59,1.0,11.0,92,0.00,,,0.00,Wunderground v.1.15,2013-02-21 07:40:00,
2013-02-21 02:45:00,15.1,13.4,30.37,ENE,59,1.0,11.0,93,0.00,,,0.00,Wunderground v.1.15,2013-02-21 07:45:00,
2013-02-21 02:50:00,15.4,13.7,30.37,NNE,13,1.0,1.0,93,0.00,,,0.00,Wunderground v.1.15,2013-02-21 07:50:00,
2013-02-21 03:00:00,15.9,14.2,30.37,NNW,327,0.0,11.0,93,0.00,,,0.00,Wunderground v.1.15,2013-02-21 08:00:00,
2013-02-21 03:05:00,16.1,14.2,30.36,NNW,327,0.0,11.0,92,0.00,,,0.00,Wunderground v.1.15,2013-02-21 08:05:00,
2013-02-21 03:10:00,16.3,14.4,30.36,NNW,327,0.0,11.0,92,0.00,,,0.00,Wunderground v.1.15,2013-02-21 08:10:00,
2013-02-21 03:15:00,16.6,14.9,30.36,NNW,327,0.0,11.0,93,0.00,,,0.00,Wunderground v.1.15,2013-02-21 08:15:00,
2013-02-21 03:20:00,16.9,15.2,30.35,NNW,327,0.0,11.0,93,0.00,,,0.00,Wunderground v.1.15,2013-02-21 08:20:00,
2013-02-21 03:25:00,17.0,15.3,30.35,NNW,327,0.0,11.0,93,0.00,,,0.00,Wunderground v.1.15,2013-02-21 08:25:00,
2013-02-21 03:35:00,17.3,15.4,30.35,NNW,327,0.0,11.0,92,0.00,,,0.00,Wunderground v.1.15,2013-02-21 08:35:00,
2013-02-21 03:40:00,17.5,15.8,30.35,SE,128,0.0,11.0,93,0.00,,,0.00,Wunderground v.1.15,2013-02-21 08:40:00,
2013-02-21 03:45:00,17.8,15.9,30.35,SE,128,0.0,11.0,92,0.00,,,0.00,Wunderground v.1.15,2013-02-21 08:45:00,
2013-02-21 03:50:00,18.0,16.1,30.35,SE,128,0.0,11.0,92,0.00,,,0.00,Wunderground v.1.15,2013-02-21 08:50:00,
2013-02-21 03:55:00,18.1,16.2,30.35,SE,128,0.0,11.0,92,0.00,,,0.00,Wunderground v.1.15,2013-02-21 08:55:00,
2013-02-21 04:05:00,18.5,16.6,30.35,SE,128,0.0,11.0,92,0.00,,,0.00,Wunderground v.1.15,2013-02-21 09:05:00,
2013-02-21 04:10:00,18.9,17.0,30.34,SE,128,0.0,11.0,92,0.00,,,0.00,Wunderground v.1.15,2013-02-21 09:10:00,
2013-02-21 04:15:00,19.2,17.3,30.34,SE,133,0.0,11.0,92,0.00,,,0.00,Wunderground v.1.15,2013-02-21 09:15:00,
2013-02-21 04:20:00,19.7,17.8,30.34,NE,40,1.0,1.0,92,0.00,,,0.00,Wunderground v.1.15,2013-02-21 09:20:00,
2013-02-21 04:25:00,20.1,17.9,30.34,NE,40,1.0,11.0,91,0.00,,,0.00,Wunderground v.1.15,2013-02-21 09:25:00,
2013-02-21 04:30:00,20.6,18.1,30.34,NE,41,0.0,11.0,90,0.00,,,0.00,Wunderground v.1.15,2013-02-21 09:30:00,
2013-02-21 04:40:00,21.5,18.5,30.34,NNE,24,1.0,1.0,88,0.00,,,0.00,Wunderground v.1.15,2013-02-21 09:40:00,
2013-02-21 04:45:00,21.8,18.5,30.34,ENE,58,1.0,11.0,87,0.00,,,0.00,Wunderground v.1.15,2013-02-21 09:45:00,
2013-02-21 04:50:00,22.1,18.6,30.34,East,81,1.0,11.0,86,0.00,,,0.00,Wunderground v.1.15,2013-02-21 09:50:00,
2013-02-21 04:55:00,22.4,18.6,30.34,SE,136,2.0,11.0,85,0.00,,,0.00,Wunderground v.1.15,2013-02-21 09:55:00,
2013-02-21 05:00:00,22.5,18.4,30.34,ESE,102,3.0,3.0,84,0.00,,,0.00,Wunderground v.1.15,2013-02-21 10:00:00,
2013-02-21 05:10:00,22.7,18.3,30.34,ENE,74,2.0,2.0,83,0.00,,,0.00,Wunderground v.1.15,2013-02-21 10:10:00,
2013-02-21 05:15:00,22.7,18.3,30.35,ENE,66,1.0,11.0,83,0.00,,,0.00,Wunderground v.1.15,2013-02-21 10:15:00,
2013-02-21 05:20:00,22.8,18.4,30.35,SE,126,1.0,11.0,83,0.00,,,0.00,Wunderground v.1.15,2013-02-21 10:20:00,
2013-02-21 05:25:00,22.9,18.5,30.35,SE,126,1.0,11.0,83,0.00,,,0.00,Wunderground v.1.15,2013-02-21 10:25:00,
2013-02-21 05:30:00,22.9,18.5,30.35,SE,125,1.0,1.0,83,0.00,,,0.00,Wunderground v.1.15,2013-02-21 10:30:00,
2013-02-21 05:35:00,22.9,18.5,30.36,SE,125,0.0,3.0,83,0.00,,,0.00,Wunderground v.1.15,2013-02-21 10:35:00,
2013-02-21 05:45:00,23.0,18.6,30.36,SE,125,1.0,11.0,83,0.00,,,0.00,Wunderground v.1.15,2013-02-21 10:45:00,
2013-02-21 05:50:00,23.0,18.6,30.37,SE,125,0.0,11.0,83,0.00,,,0.00,Wunderground v.1.15,2013-02-21 10:50:00,
2013-02-21 05:55:00,23.1,18.7,30.37,SE,125,0.0,11.0,83,0.00,,,0.00,Wunderground v.1.15,2013-02-21 10:55:00,
2013-02-21 06:00:00,23.1,18.7,30.37,SE,125,1.0,1.0,83,0.00,,,0.00,Wunderground v.1.15,2013-02-21 11:00:00,
2013-02-21 06:10:00,23.2,18.8,30.36,SE,125,0.0,0.0,83,0.00,,,0.00,Wunderground v.1.15,2013-02-21 11:10:00,
2013-02-21 06:15:00,23.2,18.8,30.37,SE,125,0.0,0.0,83,0.00,,,0.00,Wunderground v.1.15,2013-02-21 11:15:00,
2013-02-21 06:20:00,23.2,19.1,30.37,SE,125,0.0,0.0,84,0.00,,,0.00,Wunderground v.1.15,2013-02-21 11:20:00,
2013-02-21 06:25:00,23.2,18.8,30.37,SE,125,0.0,0.0,83,0.00,,,0.00,Wunderground v.1.15,2013-02-21 11:25:00,
2013-02-21 06:30:00,23.2,18.8,30.37,SE,125,0.0,0.0,83,0.00,,,0.00,Wunderground v.1.15,2013-02-21 11:30:00,
2013-02-21 06:35:00,23.2,18.8,30.36,SE,125,0.0,0.0,83,0.00,,,0.00,Wunderground v.1.15,2013-02-21 11:35:00,
2013-02-21 06:40:00,23.1,18.7,30.36,SE,125,0.0,0.0,83,0.00,,,0.00,Wunderground v.1.15,2013-02-21 11:40:00,
2013-02-21 06:50:00,23.1,19.0,30.36,SE,125,0.0,0.0,84,0.00,,,0.00,Wunderground v.1.15,2013-02-21 11:50:00,
2013-02-21 06:55:00,23.2,19.1,30.35,SE,125,0.0,1.0,84,0.00,,,0.00,Wunderground v.1.15,2013-02-21 11:55:00,
2013-02-21 07:00:00,23.2,19.1,30.35,SE,125,0.0,1.0,84,0.00,,,0.00,Wunderground v.1.15,2013-02-21 12:00:00,
2013-02-21 07:05:00,23.2,19.1,30.35,SE,125,0.0,4.0,84,0.00,,,0.00,Wunderground v.1.15,2013-02-21 12:05:00,
2013-02-21 07:10:00,23.2,19.1,30.35,SE,125,0.0,4.0,84,0.00,,,0.00,Wunderground v.1.15,2013-02-21 12:10:00,
2013-02-21 07:20:00,23.3,19.2,30.35,SE,125,0.0,4.0,84,0.00,,,0.00,Wunderground v.1.15,2013-02-21 12:20:00,
2013-02-21 07:25:00,23.3,19.5,30.35,SE,125,0.0,4.0,85,0.00,,,0.00,Wunderground v.1.15,2013-02-21 12:25:00,
2013-02-21 07:30:00,23.3,19.5,30.35,SE,125,0.0,4.0,85,0.00,,,0.00,Wunderground v.1.15,2013-02-21 12:30:00,
2013-02-21 07:35:00,23.3,19.2,30.36,SE,125,0.0,4.0,84,0.00,,,0.00,Wunderground v.1.15,2013-02-21 12:35:00,
2013-02-21 07:40:00,23.4,19.3,30.36,SE,125,0.0,4.0,84,0.00,,,0.00,Wunderground v.1.15,2013-02-21 12:40:00,
2013-02-21 07:45:00,23.5,19.4,30.36,NNW,336,2.0,4.0,84,0.00,,,0.00,Wunderground v.1.15,2013-02-21 12:45:00,
2013-02-21 07:55:00,23.6,19.5,30.36,North,11,1.0,4.0,84,0.00,,,0.00,Wunderground v.1.15,2013-02-21 12:55:00,
2013-02-21 08:00:00,23.7,19.6,30.36,ENE,57,1.0,1.0,84,0.00,,,0.00,Wunderground v.1.15,2013-02-21 13:00:00,
2013-02-21 08:05:00,23.8,19.7,30.36,North,355,1.0,4.0,84,0.00,,,0.00,Wunderground v.1.15,2013-02-21 13:05:00,
2013-02-21 08:10:00,23.9,19.8,30.36,NNE,25,1.0,4.0,84,0.00,,,0.00,Wunderground v.1.15,2013-02-21 13:10:00,
2013-02-21 08:15:00,24.0,20.1,30.36,NNW,332,2.0,4.0,85,0.00,,,0.00,Wunderground v.1.15,2013-02-21 13:15:00,
2013-02-21 08:25:00,23.8,19.9,30.34,North,355,2.0,4.0,85,0.00,,,0.00,Wunderground v.1.15,2013-02-21 13:25:00,
2013-02-21 08:30:00,23.9,20.0,30.33,East,85,2.0,2.0,85,0.00,,,0.00,Wunderground v.1.15,2013-02-21 13:30:00,
2013-02-21 08:35:00,23.9,20.0,30.33,ENE,72,1.0,3.0,85,0.00,,,0.00,Wunderground v.1.15,2013-02-21 13:35:00,
2013-02-21 08:40:00,24.0,20.1,30.34,ENE,76,1.0,1.0,85,0.00,,,0.00,Wunderground v.1.15,2013-02-21 13:40:00,
2013-02-21 08:45:00,24.0,20.1,30.34,NE,53,1.0,4.0,85,0.00,,,0.00,Wunderground v.1.15,2013-02-21 13:45:00,
2013-02-21 08:50:00,24.2,20.3,30.34,East,85,1.0,4.0,85,0.00,,,0.00,Wunderground v.1.15,2013-02-21 13:50:00,
2013-02-21 09:00:00,24.6,20.7,30.35,East,82,1.0,1.0,85,0.00,,,0.00,Wunderground v.1.15,2013-02-21 14:00:00,
2013-02-21 09:05:00,24.8,20.9,30.35,NNE,17,1.0,5.0,85,0.00,,,0.00,Wunderground v.1.15,2013-02-21 14:05:00,
2013-02-21 09:10:00,25.0,21.1,30.34,NE,52,2.0,2.0,85,0.00,,,0.00,Wunderground v.1.15,2013-02-21 14:10:00,
2013-02-21 09:15:00,25.0,20.8,30.34,East,86,2.0,2.0,84,0.00,,,0.00,Wunderground v.1.15,2013-02-21 14:15:00,
2013-02-21 09:20:00,25.2,21.0,30.34,East,98,2.0,2.0,84,0.00,,,0.00,Wunderground v.1.15,2013-02-21 14:20:00,
2013-02-21 09:30:00,25.6,21.4,30.34,NNW,336,1.0,1.0,84,0.00,,,0.00,Wunderground v.1.15,2013-02-21 14:30:00,
2013-02-21 09:35:00,25.7,21.0,30.34,East,99,2.0,3.0,82,0.00,,,0.00,Wunderground v.1.15,2013-02-21 14:35:00,
2013-02-21 09:40:00,25.7,21.0,30.34,NNE,20,3.0,7.0,82,0.00,,,0.00,Wunderground v.1.15,2013-02-21 14:40:00,
2013-02-21 09:45:00,25.7,21.0,30.35,ESE,113,3.0,7.0,82,0.00,,,0.00,Wunderground v.1.15,2013-02-21 14:45:00,
2013-02-21 09:50:00,25.7,20.7,30.35,North,355,3.0,7.0,81,0.00,,,0.00,Wunderground v.1.15,2013-02-21 14:50:00,
2013-02-21 09:55:00,25.8,20.8,30.36,SE,126,3.0,7.0,81,0.00,,,0.00,Wunderground v.1.15,2013-02-21 14:55:00,
2013-02-21 10:05:00,26.2,21.2,30.36,East,98,2.0,7.0,81,0.00,,,0.00,Wunderground v.1.15,2013-02-21 15:05:00,
2013-02-21 10:10:00,26.3,20.7,30.36,NW,326,2.0,2.0,79,0.00,,,0.00,Wunderground v.1.15,2013-02-21 15:10:00,
2013-02-21 10:15:00,26.4,21.1,30.35,East,97,2.0,7.0,80,0.00,,,0.00,Wunderground v.1.15,2013-02-21 15:15:00,
2013-02-21 10:20:00,26.7,21.4,30.34,ENE,61,2.0,7.0,80,0.00,,,0.00,Wunderground v.1.15,2013-02-21 15:20:00,
2013-02-21 10:25:00,26.7,21.1,30.34,ENE,74,3.0,7.0,79,0.00,,,0.00,Wunderground v.1.15,2013-02-21 15:25:00,
2013-02-21 10:35:00,26.9,21.3,30.33,East,82,3.0,8.0,79,0.00,,,0.00,Wunderground v.1.15,2013-02-21 15:35:00,
2013-02-21 10:40:00,27.0,21.1,30.34,SE,140,4.0,4.0,78,0.00,,,0.00,Wunderground v.1.15,2013-02-21 15:40:00,
2013-02-21 10:45:00,27.2,21.5,30.33,ESE,109,3.0,5.0,79,0.00,,,0.00,Wunderground v.1.15,2013-02-21 15:45:00,
2013-02-21 10:50:00,27.5,21.5,30.33,North,5,3.0,7.0,78,0.00,,,0.00,Wunderground v.1.15,2013-02-21 15:50:00,
2013-02-21 10:55:00,27.5,21.2,30.32,ENE,78,3.0,7.0,77,0.00,,,0.00,Wunderground v.1.15,2013-02-21 15:55:00,
2013-02-21 11:00:00,27.5,21.5,30.32,NE,56,4.0,4.0,78,0.00,,,0.00,Wunderground v.1.15,2013-02-21 16:00:00,
2013-02-21 11:10:00,27.6,21.6,30.33,ENE,71,3.0,3.0,78,0.00,,,0.00,Wunderground v.1.15,2013-02-21 16:10:00,
2013-02-21 11:15:00,27.9,21.9,30.33,East,88,2.0,6.0,78,0.00,,,0.00,Wunderground v.1.15,2013-02-21 16:15:00,
2013-02-21 11:20:00,27.8,21.5,30.33,NE,38,2.0,2.0,77,0.00,,,0.00,Wunderground v.1.15,2013-02-21 16:20:00,
2013-02-21 11:25:00,28.0,22.9,30.33,ENE,74,2.0,7.0,81,0.00,,,0.00,Wunderground v.1.15,2013-02-21 16:25:00,
2013-02-21 11:30:00,28.3,22.9,30.33,ESE,108,2.0,2.0,80,0.00,,,0.00,Wunderground v.1.15,2013-02-21 16:30:00,
2013-02-21 11:40:00,28.3,22.0,30.33,East,97,4.0,7.0,77,0.00,,,0.00,Wunderground v.1.15,2013-02-21 16:40:00,
2013-02-21 11:45:00,28.1,21.8,30.33,SE,142,5.0,7.0,77,0.00,,,0.00,Wunderground v.1.15,2013-02-21 16:45:00,
2013-02-21 11:50:00,28.1,22.4,30.33,ENE,76,4.0,7.0,79,0.00,,,0.00,Wunderground v.1.15,2013-02-21 16:50:00,
2013-02-21 11:55:00,28.2,22.2,30.32,East,96,4.0,7.0,78,0.00,,,0.00,Wunderground v.1.15,2013-02-21 16:55:00,
2013-02-21 12:00:00,28.3,22.3,30.32,ENE,61,4.0,4.0,78,0.00,,,0.00,Wunderground v.1.15,2013-02-21 17:00:00,
2013-02-21 12:05:00,28.6,22.9,30.32,East,88,3.0,7.0,79,0.00,,,0.00,Wunderground v.1.15,2013-02-21 17:05:00,
2013-02-21 12:15:00,28.7,22.4,30.30,ENE,65,3.0,5.0,77,0.00,,,0.00,Wunderground v.1.15,2013-02-21 17:15:00,
2013-02-21 12:20:00,28.5,22.2,30.30,ENE,71,4.0,8.0,77,0.00,,,0.00,Wunderground v.1.15,2013-02-21 17:20:00,
2013-02-21 12:25:00,28.6,22.6,30.29,ENE,62,5.0,8.0,78,0.00,,,0.00,Wunderground v.1.15,2013-02-21 17:25:00,
2013-02-21 12:30:00,28.6,22.3,30.29,East,81,4.0,4.0,77,0.00,,,0.00,Wunderground v.1.15,2013-02-21 17:30:00,
2013-02-21 12:35:00,29.0,22.7,30.29,NNE,27,3.0,7.0,77,0.00,,,0.00,Wunderground v.1.15,2013-02-21 17:35:00,
2013-02-21 12:45:00,29.0,22.7,30.28,ESE,123,4.0,9.0,77,0.00,,,0.00,Wunderground v.1.15,2013-02-21 17:45:00,
2013-02-21 12:50:00,29.0,22.7,30.27,SSE,161,4.0,4.0,77,0.00,,,0.00,Wunderground v.1.15,2013-02-21 17:50:00,
2013-02-21 12:55:00,29.3,23.0,30.27,East,83,4.0,7.0,77,0.00,,,0.00,Wunderground v.1.15,2013-02-21 17:55:00,
2013-02-21 13:00:00,29.5,22.6,30.27,SE,128,4.0,4.0,75,0.00,,,0.00,Wunderground v.1.15,2013-02-21 18:00:00,
2013-02-21 13:05:00,29.7,22.7,30.26,NE,45,4.0,7.0,75,0.00,,,0.00,Wunderground v.1.15,2013-02-21 18:05:00,
2013-02-21 13:10:00,29.9,23.3,30.26,NNE,33,3.0,3.0,76,0.00,,,0.00,Wunderground v.1.15,2013-02-21 18:10:00,
2013-02-21 13:15:00,30.4,23.7,30.25,East,89,2.0,5.0,76,0.00,,,0.00,Wunderground v.1.15,2013-02-21 18:15:00,
2013-02-21 13:20:00,30.7,23.4,30.24,ESE,105,3.0,7.0,74,0.00,,,0.00,Wunderground v.1.15,2013-02-21 18:20:00,
2013-02-21 13:25:00,30.0,22.7,30.23,NE,51,4.0,7.0,74,0.00,,,0.00,Wunderground v.1.15,2013-02-21 18:25:00,
2013-02-21 13:30:00,29.8,22.8,30.23,ESE,109,4.0,4.0,75,0.00,,,0.00,Wunderground v.1.15,2013-02-21 18:30:00,
2013-02-21 13:35:00,30.0,23.4,30.22,ENE,67,4.0,5.0,76,0.00,,,0.00,Wunderground v.1.15,2013-02-21 18:35:00,
2013-02-21 13:45:00,29.7,23.1,30.20,NE,34,5.0,7.0,76,0.00,,,0.00,Wunderground v.1.15,2013-02-21 18:45:00,
2013-02-21 13:50:00,29.7,23.1,30.19,NE,34,4.0,8.0,76,0.00,,,0.00,Wunderground v.1.15,2013-02-21 18:50:00,
2013-02-21 13:55:00,29.4,22.8,30.17,SE,139,6.0,8.0,76,0.00,,,0.00,Wunderground v.1.15,2013-02-21 18:55:00,
2013-02-21 14:00:00,29.5,23.2,30.17,East,86,6.0,7.0,77,0.00,,,0.00,Wunderground v.1.15,2013-02-21 19:00:00,
2013-02-21 14:05:00,29.6,23.3,30.17,NE,40,5.0,7.0,77,0.00,,,0.00,Wunderground v.1.15,2013-02-21 19:05:00,
2013-02-21 14:10:00,29.8,23.5,30.17,ESE,121,5.0,5.0,77,0.00,,,0.00,Wunderground v.1.15,2013-02-21 19:10:00,
2013-02-21 14:15:00,29.9,23.3,30.16,ENE,67,5.0,7.0,76,0.00,,,0.00,Wunderground v.1.15,2013-02-21 19:15:00,
2013-02-21 14:20:00,29.6,22.6,30.16,East,92,5.0,7.0,75,0.00,,,0.00,Wunderground v.1.15,2013-02-21 19:20:00,
2013-02-21 14:25:00,29.4,22.8,30.17,East,92,6.0,7.0,76,0.00,,,0.00,Wunderground v.1.15,2013-02-21 19:25:00,
2013-02-21 14:30:00,29.2,22.9,30.17,ENE,62,5.0,9.0,77,0.00,,,0.00,Wunderground v.1.15,2013-02-21 19:30:00,
2013-02-21 14:40:00,29.2,22.9,30.17,ESE,120,4.0,7.0,77,0.00,,,0.00,Wunderground v.1.15,2013-02-21 19:40:00,
2013-02-21 14:45:00,29.1,22.8,30.18,ESE,102,4.0,7.0,77,0.00,,,0.00,Wunderground v.1.15,2013-02-21 19:45:00,
2013-02-21 14:50:00,29.0,22.7,30.19,East,89,4.0,4.0,77,0.00,,,0.00,Wunderground v.1.15,2013-02-21 19:50:00,
2013-02-21 14:55:00,29.0,22.7,30.21,ESE,113,3.0,7.0,77,0.00,,,0.00,Wunderground v.1.15,2013-02-21 19:55:00,
2013-02-21 15:00:00,28.8,22.2,30.21,ESE,113,3.0,7.0,76,0.00,,,0.00,Wunderground v.1.15,2013-02-21 20:00:00,
2013-02-21 15:05:00,28.8,22.5,30.22,ESE,114,4.0,7.0,77,0.00,,,0.00,Wunderground v.1.15,2013-02-21 20:05:00,
2013-02-21 15:10:00,28.9,22.6,30.22,ESE,122,4.0,4.0,77,0.00,,,0.00,Wunderground v.1.15,2013-02-21 20:10:00,
2013-02-21 15:20:00,29.0,22.7,30.24,East,100,3.0,7.0,77,0.00,,,0.00,Wunderground v.1.15,2013-02-21 20:20:00,
2013-02-21 15:25:00,29.0,22.7,30.23,ESE,117,3.0,7.0,77,0.00,,,0.00,Wunderground v.1.15,2013-02-21 20:25:00,
2013-02-21 15:30:00,29.0,22.7,30.23,ESE,114,3.0,3.0,77,0.00,,,0.00,Wunderground v.1.15,2013-02-21 20:30:00,
2013-02-21 15:35:00,29.1,22.8,30.22,East,99,3.0,7.0,77,0.00,,,0.00,Wunderground v.1.15,2013-02-21 20:35:00,
2013-02-21 15:40:00,29.2,22.9,30.23,ENE,76,3.0,7.0,77,0.00,,,0.00,Wunderground v.1.15,2013-02-21 20:40:00,
2013-02-21 15:50:00,29.0,22.7,30.23,SE,126,5.0,5.0,77,0.00,,,0.00,Wunderground v.1.15,2013-02-21 20:50:00,
2013-02-21 15:55:00,29.0,22.7,30.22,ENE,62,4.0,7.0,77,0.00,,,0.00,Wunderground v.1.15,2013-02-21 20:55:00,
2013-02-21 16:00:00,29.1,22.8,30.21,NE,52,3.0,7.0,77,0.00,,,0.00,Wunderground v.1.15,2013-02-21 21:00:00,
2013-02-21 16:05:00,29.0,22.7,30.21,East,90,3.0,7.0,77,0.00,,,0.00,Wunderground v.1.15,2013-02-21 21:05:00,
2013-02-21 16:15:00,28.9,23.2,30.20,SE,130,4.0,7.0,79,0.00,,,0.00,Wunderground v.1.15,2013-02-21 21:15:00,
2013-02-21 16:20:00,28.9,22.9,30.20,ESE,108,3.0,8.0,78,0.00,,,0.00,Wunderground v.1.15,2013-02-21 21:20:00,
2013-02-21 16:25:00,28.8,22.8,30.20,ENE,63,3.0,8.0,78,0.00,,,0.00,Wunderground v.1.15,2013-02-21 21:25:00,
2013-02-21 16:30:00,28.7,22.4,30.20,East,84,4.0,7.0,77,0.00,,,0.00,Wunderground v.1.15,2013-02-21 21:30:00,
2013-02-21 16:40:00,28.4,22.4,30.20,SE,134,5.0,5.0,78,0.00,,,0.00,Wunderground v.1.15,2013-02-21 21:40:00,
2013-02-21 16:45:00,28.4,22.4,30.20,East,98,4.0,7.0,78,0.00,,,0.00,Wunderground v.1.15,2013-02-21 21:45:00,
2013-02-21 16:50:00,28.3,22.3,30.19,East,87,4.0,7.0,78,0.00,,,0.00,Wunderground v.1.15,2013-02-21 21:50:00,
2013-02-21 16:55:00,28.3,22.3,30.19,ESE,111,4.0,7.0,78,0.00,,,0.00,Wunderground v.1.15,2013-02-21 21:55:00,
2013-02-21 17:05:00,28.2,22.2,30.17,East,96,4.0,7.0,78,0.00,,,0.00,Wunderground v.1.15,2013-02-21 22:05:00,
2013-02-21 17:10:00,28.1,22.1,30.18,NE,53,4.0,7.0,78,0.00,,,0.00,Wunderground v.1.15,2013-02-21 22:10:00,
2013-02-21 17:15:00,28.1,22.4,30.17,East,94,4.0,7.0,79,0.00,,,0.00,Wunderground v.1.15,2013-02-21 22:15:00,
2013-02-21 17:20:00,28.1,22.1,30.17,ESE,118,5.0,5.0,78,0.00,,,0.00,Wunderground v.1.15,2013-02-21 22:20:00,
2013-02-21 17:25:00,28.1,22.1,30.17,East,84,6.0,7.0,78,0.00,,,0.00,Wunderground v.1.15,2013-02-21 22:25:00,
2013-02-21 17:30:00,28.1,22.4,30.17,East,93,5.0,5.0,79,0.00,,,0.00,Wunderground v.1.15,2013-02-21 22:30:00,
2013-02-21 17:40:00,28.2,22.2,30.18,ESE,107,4.0,7.0,78,0.00,,,0.00,Wunderground v.1.15,2013-02-21 22:40:00,
2013-02-21 17:45:00,28.3,22.6,30.18,ENE,77,4.0,7.0,79,0.00,,,0.00,Wunderground v.1.15,2013-02-21 22:45:00,
2013-02-21 17:50:00,28.3,22.6,30.18,SE,138,4.0,4.0,79,0.00,,,0.00,Wunderground v.1.15,2013-02-21 22:50:00,
2013-02-21 17:55:00,28.4,22.4,30.18,SE,133,4.0,5.0,78,0.00,,,0.00,Wunderground v.1.15,2013-02-21 22:55:00,
2013-02-21 18:00:00,28.4,22.4,30.17,SE,131,5.0,5.0,78,0.00,,,0.00,Wunderground v.1.15,2013-02-21 23:00:00,
2013-02-21 18:05:00,28.4,22.4,30.17,East,101,4.0,7.0,78,0.00,,,0.00,Wunderground v.1.15,2013-02-21 23:05:00,
2013-02-21 18:10:00,28.5,22.8,30.17,ESE,106,4.0,4.0,79,0.00,,,0.00,Wunderground v.1.15,2013-02-21 23:10:00,
2013-02-21 18:15:00,28.5,22.8,30.17,ESE,108,4.0,7.0,79,0.00,,,0.00,Wunderground v.1.15,2013-02-21 23:15:00,
2013-02-21 18:20:00,28.4,22.7,30.17,East,100,4.0,4.0,79,0.00,,,0.00,Wunderground v.1.15,2013-02-21 23:20:00,
2013-02-21 18:25:00,28.4,22.7,30.16,East,87,4.0,5.0,79,0.00,,,0.00,Wunderground v.1.15,2013-02-21 23:25:00,
2013-02-21 18:30:00,28.4,22.7,30.15,East,101,4.0,7.0,79,0.00,,,0.00,Wunderground v.1.15,2013-02-21 23:30:00,
2013-02-21 18:35:00,28.4,22.7,30.14,East,94,4.0,7.0,79,0.00,,,0.00,Wunderground v.1.15,2013-02-21 23:35:00,
2013-02-21 18:45:00,28.4,22.7,30.15,East,86,5.0,9.0,79,0.00,,,0.00,Wunderground v.1.15,2013-02-21 23:45:00,
2013-02-21 18:50:00,28.4,22.7,30.15,ESE,116,6.0,10.0,79,0.00,,,0.00,Wunderground v.1.15,2013-02-21 23:50:00,
2013-02-21 18:55:00,28.4,22.7,30.15,SE,130,6.0,10.0,79,0.00,,,0.00,Wunderground v.1.15,2013-02-21 23:55:00,
2013-02-21 19:00:00,28.4,23.0,30.16,ESE,110,4.0,4.0,80,0.00,,,0.00,Wunderground v.1.15,2013-02-22 00:00:00,
2013-02-21 19:05:00,28.4,23.3,30.16,ESE,113,3.0,7.0,81,0.00,,,0.00,Wunderground v.1.15,2013-02-22 00:05:00,
2013-02-21 19:15:00,28.3,23.8,30.15,ESE,107,3.0,7.0,83,0.00,,,0.00,Wunderground v.1.15,2013-02-22 00:15:00,
2013-02-21 19:20:00,28.1,23.6,30.15,East,93,4.0,4.0,83,0.00,,,0.00,Wunderground v.1.15,2013-02-22 00:20:00,
2013-02-21 19:25:00,28.0,23.8,30.15,ESE,121,5.0,5.0,84,0.00,,,0.00,Wunderground v.1.15,2013-02-22 00:25:00,
2013-02-21 19:30:00,27.9,24.0,30.14,ENE,64,5.0,5.0,85,0.00,,,0.00,Wunderground v.1.15,2013-02-22 00:30:00,
2013-02-21 19:35:00,27.8,23.9,30.14,ESE,115,4.0,7.0,85,0.00,,,0.00,Wunderground v.1.15,2013-02-22 00:35:00,
2013-02-21 19:40:00,27.7,23.8,30.13,ENE,78,4.0,7.0,85,0.00,,,0.00,Wunderground v.1.15,2013-02-22 00:40:00,
2013-02-21 19:50:00,27.3,23.9,30.12,ENE,71,6.0,6.0,87,0.00,,,0.00,Wunderground v.1.15,2013-02-22 00:50:00,
2013-02-21 19:55:00,27.2,23.8,30.12,East,100,6.0,7.0,87,0.00,,,0.00,Wunderground v.1.15,2013-02-22 00:55:00,
2013-02-21 20:00:00,27.1,24.0,30.12,ENE,59,4.0,8.0,88,0.00,,,0.00,Wunderground v.1.15,2013-02-22 01:00:00,
2013-02-21 20:05:00,27.0,24.2,30.11,East,83,4.0,8.0,89,0.00,,,0.00,Wunderground v.1.15,2013-02-22 01:05:00,
2013-02-21 20:10:00,26.8,24.3,30.11,ENE,64,4.0,7.0,90,0.00,,,0.00,Wunderground v.1.15,2013-02-22 01:10:00,
2013-02-21 20:15:00,26.6,24.3,30.11,ESE,120,5.0,8.0,91,0.00,,,0.00,Wunderground v.1.15,2013-02-22 01:15:00,
2013-02-21 20:20:00,26.5,24.2,30.10,ESE,111,7.0,7.0,91,0.00,,,0.00,Wunderground v.1.15,2013-02-22 01:20:00,
2013-02-21 20:25:00,26.4,24.4,30.09,East,83,7.0,9.0,92,0.00,,,0.00,Wunderground v.1.15,2013-02-22 01:25:00,
2013-02-21 20:30:00,26.2,24.2,30.08,East,101,6.0,6.0,92,0.00,,,0.00,Wunderground v.1.15,2013-02-22 01:30:00,
2013-02-21 20:35:00,26.1,24.1,30.08,East,96,6.0,7.0,92,0.00,,,0.00,Wunderground v.1.15,2013-02-22 01:35:00,
2013-02-21 20:40:00,25.9,24.2,30.08,ENE,71,7.0,7.0,93,0.00,,,0.00,Wunderground v.1.15,2013-02-22 01:40:00,
2013-02-21 20:45:00,25.9,24.2,30.07,ESE,104,7.0,8.0,93,0.00,,,0.00,Wunderground v.1.15,2013-02-22 01:45:00,
2013-02-21 20:55:00,25.8,24.1,30.06,East,98,7.0,7.0,93,0.00,,,0.00,Wunderground v.1.15,2013-02-22 01:55:00,
2013-02-21 21:00:00,25.8,24.1,30.06,NE,53,8.0,8.0,93,0.00,,,0.00,Wunderground v.1.15,2013-02-22 02:00:00,
2013-02-21 21:05:00,25.8,24.1,30.06,East,88,7.0,8.0,93,0.00,,,0.00,Wunderground v.1.15,2013-02-22 02:05:00,
2013-02-21 21:10:00,25.8,24.1,30.06,ENE,57,6.0,7.0,93,0.00,,,0.00,Wunderground v.1.15,2013-02-22 02:10:00,
2013-02-21 21:15:00,25.8,24.1,30.05,ESE,109,6.0,7.0,93,0.00,,,0.00,Wunderground v.1.15,2013-02-22 02:15:00,
2013-02-21 21:25:00,26.0,24.3,30.04,ENE,68,7.0,7.0,93,0.00,,,0.00,Wunderground v.1.15,2013-02-22 02:25:00,
2013-02-21 21:30:00,26.0,24.0,30.03,East,82,6.0,15.0,92,0.00,,,0.00,Wunderground v.1.15,2013-02-22 02:30:00,
2013-02-21 21:35:00,26.0,24.0,30.02,SE,129,6.0,15.0,92,0.00,,,0.00,Wunderground v.1.15,2013-02-22 02:35:00,
2013-02-21 21:40:00,26.1,24.4,30.02,North,355,6.0,9.0,93,0.00,,,0.00,Wunderground v.1.15,2013-02-22 02:40:00,
2013-02-21 21:45:00,26.1,24.1,30.00,ENE,70,7.0,10.0,92,0.00,,,0.00,Wunderground v.1.15,2013-02-22 02:45:00,
2013-02-21 21:50:00,26.2,24.2,30.01,East,91,8.0,8.0,92,0.00,,,0.00,Wunderground v.1.15,2013-02-22 02:50:00,
2013-02-21 22:00:00,26.1,24.1,30.00,ESE,109,6.0,6.0,92,0.00,,,0.00,Wunderground v.1.15,2013-02-22 03:00:00,
2013-02-21 22:05:00,26.1,24.1,30.00,East,98,6.0,11.0,92,0.00,,,0.00,Wunderground v.1.15,2013-02-22 03:05:00,
2013-02-21 22:10:00,26.1,24.1,30.00,NE,52,7.0,7.0,92,0.00,,,0.00,Wunderground v.1.15,2013-02-22 03:10:00,
2013-02-21 22:15:00,26.1,24.1,30.00,ESE,113,7.0,13.0,92,0.00,,,0.00,Wunderground v.1.15,2013-02-22 03:15:00,
2013-02-21 22:20:00,26.2,23.9,30.00,ESE,105,7.0,7.0,91,0.00,,,0.00,Wunderground v.1.15,2013-02-22 03:20:00,
2013-02-21 22:30:00,26.2,23.9,29.99,ESE,119,7.0,10.0,91,0.00,,,0.00,Wunderground v.1.15,2013-02-22 03:30:00,
2013-02-21 22:35:00,26.2,23.9,29.99,ESE,107,7.0,10.0,91,0.00,,,0.00,Wunderground v.1.15,2013-02-22 03:35:00,
2013-02-21 22:40:00,26.2,23.9,29.99,ENE,65,7.0,13.0,91,0.00,,,0.00,Wunderground v.1.15,2013-02-22 03:40:00,
2013-02-21 22:45:00,26.3,24.0,29.99,ENE,62,7.0,13.0,91,0.00,,,0.00,Wunderground v.1.15,2013-02-22 03:45:00,
2013-02-21 22:50:00,26.3,24.0,29.99,East,81,6.0,6.0,91,0.00,,,0.00,Wunderground v.1.15,2013-02-22 03:50:00,
2013-02-21 22:55:00,26.4,24.4,30.00,ESE,108,6.0,7.0,92,0.00,,,0.00,Wunderground v.1.15,2013-02-22 03:55:00,
2013-02-21 23:05:00,26.6,24.6,30.00,ESE,117,4.0,7.0,92,0.00,,,0.00,Wunderground v.1.15,2013-02-22 04:05:00,
2013-02-21 23:10:00,26.7,24.7,30.00,ESE,113,4.0,4.0,92,0.00,,,0.00,Wunderground v.1.15,2013-02-22 04:10:00,
2013-02-21 23:15:00,26.9,24.9,30.00,East,82,5.0,11.0,92,0.00,,,0.00,Wunderground v.1.15,2013-02-22 04:15:00,
2013-02-21 23:25:00,27.1,25.3,30.00,East,88,7.0,10.0,93,0.00,,,0.00,Wunderground v.1.15,2013-02-22 04:25:00,
2013-02-21 23:30:00,27.2,25.4,30.01,ESE,105,6.0,6.0,93,0.00,,,0.00,Wunderground v.1.15,2013-02-22 04:30:00,
2013-02-21 23:35:00,27.2,25.4,30.01,ESE,113,6.0,7.0,93,0.00,,,0.00,Wunderground v.1.15,2013-02-22 04:35:00,
2013-02-21 23:40:00,27.4,25.6,30.01,ESE,105,7.0,8.0,93,0.00,,,0.00,Wunderground v.1.15,2013-02-22 04:40:00,
2013-02-21 23:45:00,27.4,25.6,30.00,ESE,106,7.0,8.0,93,0.00,,,0.00,Wunderground v.1.15,2013-02-22 04:45:00,
2013-02-21 23:50:00,27.5,25.7,30.00,ENE,77,7.0,8.0,93,0.00,,,0.00,Wunderground v.1.15,2013-02-22 04:50:00,
2013-02-21 23:55:00,27.6,25.8,29.98,ESE,114,7.0,8.0,93,0.00,,,0.00,Wunderground v.1.15,2013-02-22 04:55:00,